TimeEDT,TemperatureF,Dew PointF,Humidity,Sea Level PressureIn,VisibilityMPH,Wind Direction,Wind SpeedMPH,Gust SpeedMPH,PrecipitationIn,Events,Conditions,WindDirDegrees,DateUTC
12:56 AM,61.0,57.9,90,29.98,8.0,Calm,Calm,-,N/A,,Clear,0,2013-08-07 04:56:00
1:56 AM,60.1,57.0,90,29.97,5.0,Calm,Calm,-,N/A,,Clear,0,2013-08-07 05:56:00
2:56 AM,59.0,57.9,96,29.97,4.0,Calm,Calm,-,N/A,,Clear,0,2013-08-07 06:56:00
3:56 AM,60.1,57.9,93,29.97,6.0,Calm,Calm,-,N/A,,Mostly Cloudy,0,2013-08-07 07:56:00
4:56 AM,61.0,59.0,93,29.96,7.0,Calm,Calm,-,N/A,,Mostly Cloudy,0,2013-08-07 08:56:00
5:56 AM,62.1,60.1,93,29.96,7.0,Calm,Calm,-,N/A,,Mostly Cloudy,0,2013-08-07 09:56:00
6:56 AM,64.9,60.1,84,29.94,10.0,South,4.6,-,N/A,,Clear,190,2013-08-07 10:56:00
7:56 AM,66.9,62.1,84,29.95,10.0,South,3.5,-,N/A,,Clear,190,2013-08-07 11:56:00
8:46 AM,68.0,62.6,83,29.97,10.0,South,3.5,-,N/A,,Mostly Cloudy,190,2013-08-07 12:46:00
8:56 AM,69.1,63.0,81,29.96,10.0,SSE,3.5,-,N/A,,Mostly Cloudy,150,2013-08-07 12:56:00
9:35 AM,69.8,64.4,83,29.97,10.0,South,4.6,-,N/A,,Scattered Clouds,180,2013-08-07 13:35:00
9:48 AM,69.8,64.4,83,29.97,10.0,South,5.8,-,N/A,,Mostly Cloudy,180,2013-08-07 13:48:00
9:56 AM,70.0,64.0,81,29.96,10.0,South,4.6,-,N/A,,Mostly Cloudy,190,2013-08-07 13:56:00
10:21 AM,71.6,64.4,78,29.98,10.0,South,6.9,-,N/A,,Mostly Cloudy,190,2013-08-07 14:21:00
10:56 AM,73.9,68.0,82,29.96,10.0,SSW,9.2,-,N/A,,Partly Cloudy,210,2013-08-07 14:56:00
11:56 AM,75.0,68.0,79,29.95,10.0,South,11.5,18.4,N/A,,Clear,190,2013-08-07 15:56:00
12:56 PM,73.9,68.0,82,29.96,9.0,SSW,6.9,-,N/A,,Mostly Cloudy,200,2013-08-07 16:56:00
12:59 PM,73.4,68.0,83,29.98,9.0,SSW,5.8,-,N/A,Thunderstorm,Mostly Cloudy,200,2013-08-07 16:59:00
1:29 PM,75.2,69.8,83,29.97,9.0,SSW,3.5,-,N/A,,Scattered Clouds,200,2013-08-07 17:29:00
1:56 PM,75.9,70.0,82,29.95,9.0,South,3.5,-,N/A,,Partly Cloudy,190,2013-08-07 17:56:00
2:08 PM,75.2,69.8,83,29.97,2.0,South,3.5,-,0.04,Rain-Thunderstorm,Rain,180,2013-08-07 18:08:00
2:14 PM,73.4,71.6,94,29.96,1.0,South,6.9,-,0.13,Rain-Thunderstorm,Heavy Rain,170,2013-08-07 18:14:00
2:16 PM,73.4,71.6,94,29.96,0.8,SSE,5.8,-,0.18,Rain-Thunderstorm,Heavy Rain,160,2013-08-07 18:16:00
2:40 PM,69.8,62.6,78,29.95,1.2,NNE,13.8,-,0.61,Rain-Thunderstorm,Light Thunderstorms and Rain,30,2013-08-07 18:40:00
2:43 PM,69.8,62.6,78,29.96,3.0,North,12.7,-,0.62,Rain-Thunderstorm,Light Thunderstorms and Rain,10,2013-08-07 18:43:00
2:56 PM,69.1,66.0,90,29.95,5.0,Variable,3.5,-,0.63,Rain-Thunderstorm,Light Thunderstorms and Rain,0,2013-08-07 18:56:00
3:23 PM,66.2,64.4,94,29.98,1.8,NE,8.1,-,0.14,Rain-Thunderstorm,Heavy Thunderstorms and Rain,40,2013-08-07 19:23:00
3:33 PM,68.0,66.2,94,29.99,3.0,Calm,Calm,-,0.16,Rain-Thunderstorm,Light Thunderstorms and Rain,0,2013-08-07 19:33:00
3:56 PM,70.0,68.0,93,29.96,10.0,SSE,4.6,-,0.16,Thunderstorm,Mostly Cloudy,150,2013-08-07 19:56:00
4:19 PM,71.6,68.0,88,29.94,10.0,SE,9.2,-,N/A,,Partly Cloudy,140,2013-08-07 20:19:00
4:56 PM,73.0,68.0,84,29.91,10.0,Calm,Calm,-,N/A,,Clear,0,2013-08-07 20:56:00
5:56 PM,73.0,68.0,84,29.92,10.0,SSE,6.9,-,N/A,,Clear,150,2013-08-07 21:56:00
6:56 PM,73.0,68.0,84,29.92,10.0,SSE,3.5,-,N/A,,Clear,160,2013-08-07 22:56:00
8:56 PM,71.1,68.0,90,29.93,10.0,SSE,4.6,-,N/A,,Mostly Cloudy,150,2013-08-08 00:56:00
9:56 PM,70.0,68.0,93,29.94,10.0,Calm,Calm,-,N/A,,Clear,0,2013-08-08 01:56:00
10:56 PM,69.1,66.9,93,29.95,8.0,South,3.5,-,N/A,,Mostly Cloudy,170,2013-08-08 02:56:00
11:56 PM,71.1,69.1,93,29.95,7.0,South,3.5,-,N/A,,Clear,180,2013-08-08 03:56:00